Location: Unspecified
(33.9239°N, 118.0544°W)
Time: 06:51:47
(UTC-07:00)

Cosmos 1674 - Visible Passes

Search period start: 26 April 2017 00:00
Search period end: 06 May 2017 00:00
Orbit: 499 x 522 km, 82.5° (Epoch: 24 April)

Date Brightness Start Highest point End Pass type
(mag) Time Alt. Az. Time Alt. Az. Time Alt. Az.
26 Apr 3.2 05:20:44 10° S 05:24:27 62° E 05:28:12 10° NNE visible
27 Apr 3.8 05:04:22 10° SSE 05:07:58 46° E 05:11:38 10° NNE visible
28 Apr 4.3 04:48:04 10° SSE 04:51:31 34° E 04:54:59 10° NNE visible
29 Apr 4.8 04:31:50 10° SSE 04:35:03 26° E 04:38:17 10° NNE visible
30 Apr 5.2 04:15:44 10° SE 04:18:36 21° E 04:21:28 10° NE visible
01 May 5.5 03:59:46 10° SE 04:02:09 16° E 04:04:32 10° NE visible
01 May 3.9 05:34:25 10° SW 05:37:30 23° WNW 05:40:38 10° NNW visible
02 May 5.6 03:44:05 10° ESE 03:45:42 12° E 03:47:20 10° ENE visible
02 May 3.6 05:17:35 10° SW 05:20:57 30° W 05:24:22 10° NNW visible
03 May 3.2 05:01:40 16° SW 05:04:23 39° W 05:08:01 10° N visible
04 May 2.8 04:45:44 23° SSW 04:47:51 53° W 04:51:37 10° N visible
05 May 2.6 04:29:45 33° SSW 04:31:19 72° W 04:35:09 10° N visible
